AAL1017 KBNA-KIAH

Flight info

Callsign AAL1017
Flight time 2h 2m
Altitude 32000
Route DANLS4 DANLS UJM Q31 DHART Q33 SWEUP GESNR2
Aircraft A321/M-SDE3FGHIRWY/LB1

Departure

Time 2026-05-08 02:58
Airport Nashville International Airport (KBNA)

Arrival

Time 2026-05-08 05:00
Airport George Bush Intercontinental Airport (KIAH)
Time Latitude Longitude Altitude Speed Heading
2026-05-08 02:32 36.12747 -86.67277 576 ft 0 kts 189°
2026-05-08 02:46 36.12762 -86.67274 576 ft 2 kts 189°
2026-05-08 02:46 36.12776 -86.67268 574 ft 2 kts 246°
2026-05-08 02:46 36.12782 -86.67250 577 ft 2 kts 246°
2026-05-08 02:47 36.12789 -86.67232 575 ft 2 kts 246°
2026-05-08 02:47 36.12795 -86.67214 572 ft 2 kts 271°
2026-05-08 02:47 36.12795 -86.67209 572 ft 0 kts 281°
2026-05-08 02:50 36.12819 -86.67256 573 ft 10 kts 297°
2026-05-08 02:50 36.12808 -86.67323 578 ft 7 kts 230°
2026-05-08 02:50 36.12777 -86.67363 579 ft 9 kts 225°
2026-05-08 02:51 36.12710 -86.67434 578 ft 13 kts 217°
2026-05-08 02:51 36.12636 -86.67486 579 ft 12 kts 208°
2026-05-08 02:51 36.12571 -86.67543 582 ft 11 kts 223°
2026-05-08 02:51 36.12519 -86.67603 582 ft 9 kts 223°
2026-05-08 02:52 36.12490 -86.67670 583 ft 11 kts 275°
2026-05-08 02:52 36.12540 -86.67755 582 ft 14 kts 313°
2026-05-08 02:52 36.12615 -86.67853 581 ft 17 kts 313°
2026-05-08 02:52 36.12703 -86.67967 577 ft 19 kts 313°
2026-05-08 02:53 36.12715 -86.68088 578 ft 17 kts 200°
2026-05-08 02:53 36.12602 -86.68130 584 ft 16 kts 197°
2026-05-08 02:53 36.12499 -86.68166 581 ft 15 kts 196°
2026-05-08 02:53 36.12404 -86.68201 583 ft 14 kts 196°
2026-05-08 02:54 36.12316 -86.68232 584 ft 13 kts 195°
2026-05-08 02:54 36.12236 -86.68260 586 ft 11 kts 196°
2026-05-08 02:54 36.12163 -86.68286 587 ft 11 kts 195°
2026-05-08 02:54 36.12064 -86.68321 588 ft 17 kts 196°
2026-05-08 02:55 36.11952 -86.68360 590 ft 16 kts 196°
2026-05-08 02:55 36.11758 -86.68432 593 ft 13 kts 198°
2026-05-08 02:55 36.11746 -86.68520 594 ft 11 kts 289°
2026-05-08 02:56 36.11751 -86.68540 594 ft 0 kts 289°
2026-05-08 02:56 36.11756 -86.68558 594 ft 6 kts 289°
2026-05-08 02:56 36.11778 -86.68619 594 ft 8 kts 310°
2026-05-08 02:57 36.11837 -86.68622 593 ft 11 kts 15°
2026-05-08 02:57 36.12077 -86.68529 589 ft 71 kts 17°
2026-05-08 02:57 36.12752 -86.68265 584 ft 132 kts 18°
2026-05-08 02:57 36.13770 -86.67866 735 ft 165 kts 17°
2026-05-08 02:58 36.14896 -86.67438 1295 ft 172 kts 14°
2026-05-08 02:58 36.16063 -86.67259 2031 ft 168 kts
2026-05-08 02:58 36.17224 -86.67391 2697 ft 170 kts 344°
2026-05-08 02:58 36.18358 -86.67846 3346 ft 168 kts 342°
2026-05-08 02:59 36.19497 -86.68302 3849 ft 180 kts 342°
2026-05-08 02:59 36.20791 -86.68824 3948 ft 211 kts 343°
2026-05-08 02:59 36.22288 -86.69362 4254 ft 236 kts 344°
2026-05-08 02:59 36.23949 -86.69928 4679 ft 258 kts 345°
2026-05-08 03:00 36.25682 -86.70521 5427 ft 265 kts 344°
2026-05-08 03:00 36.27441 -86.71222 6318 ft 267 kts 333°
2026-05-08 03:00 36.28814 -86.72749 6816 ft 269 kts 301°
2026-05-08 03:00 36.29286 -86.74953 6958 ft 269 kts 268°
2026-05-08 03:01 36.28701 -86.77160 7343 ft 274 kts 244°
2026-05-08 03:01 36.27911 -86.79309 8227 ft 274 kts 253°
2026-05-08 03:01 36.27416 -86.81581 9122 ft 273 kts 260°
2026-05-08 03:01 36.27025 -86.83888 10008 ft 275 kts 259°
2026-05-08 03:02 36.26337 -86.86161 10332 ft 299 kts 247°
2026-05-08 03:02 36.25349 -86.88542 10530 ft 323 kts 244°
2026-05-08 03:02 36.24229 -86.91046 10872 ft 338 kts 244°
2026-05-08 03:02 36.23047 -86.93584 11555 ft 341 kts 243°
2026-05-08 03:03 36.21849 -86.96123 12335 ft 341 kts 244°
2026-05-08 03:03 36.20654 -86.98661 13117 ft 341 kts 244°
2026-05-08 03:03 36.19468 -87.01200 13896 ft 340 kts 244°
2026-05-08 03:03 36.18287 -87.03739 14579 ft 341 kts 244°
2026-05-08 03:04 36.17106 -87.06287 15193 ft 342 kts 245°
2026-05-08 03:04 36.15922 -87.08851 15805 ft 345 kts 245°
2026-05-08 03:04 36.14746 -87.11400 16410 ft 347 kts 245°
2026-05-08 03:04 36.13547 -87.14001 17012 ft 349 kts 245°
2026-05-08 03:05 36.12337 -87.16617 17618 ft 352 kts 245°
2026-05-08 03:05 36.11117 -87.19251 18225 ft 354 kts 245°
2026-05-08 03:05 36.10035 -87.21977 18756 ft 353 kts 252°
2026-05-08 03:05 36.09319 -87.24866 19279 ft 351 kts 259°
2026-05-08 03:06 36.08736 -87.27805 19793 ft 353 kts 259°
2026-05-08 03:06 36.08146 -87.30758 20298 ft 355 kts 259°
2026-05-08 03:06 36.07550 -87.33724 20775 ft 356 kts 259°
2026-05-08 03:06 36.06955 -87.36668 21224 ft 359 kts 259°
2026-05-08 03:07 36.06350 -87.39670 21693 ft 361 kts 259°
2026-05-08 03:07 36.05743 -87.42689 22154 ft 363 kts 259°
2026-05-08 03:07 36.05132 -87.45721 22618 ft 365 kts 259°
2026-05-08 03:07 36.04514 -87.48771 23059 ft 367 kts 259°
2026-05-08 03:08 36.03889 -87.51835 23498 ft 369 kts 259°
2026-05-08 03:08 36.03260 -87.54912 23889 ft 370 kts 259°
2026-05-08 03:08 36.02631 -87.57994 24299 ft 370 kts 259°
2026-05-08 03:08 36.02006 -87.61069 24733 ft 369 kts 259°
2026-05-08 03:09 36.01382 -87.64136 25160 ft 368 kts 259°
2026-05-08 03:09 36.00763 -87.67149 25578 ft 367 kts 259°
2026-05-08 03:09 36.00137 -87.70198 26001 ft 366 kts 259°
2026-05-08 03:09 35.99512 -87.73239 26395 ft 365 kts 259°
2026-05-08 03:10 35.98890 -87.76276 26789 ft 364 kts 259°
2026-05-08 03:10 35.98269 -87.79306 27175 ft 364 kts 259°
2026-05-08 03:10 35.97648 -87.82330 27555 ft 363 kts 259°
2026-05-08 03:10 35.97026 -87.85349 27920 ft 363 kts 259°
2026-05-08 03:11 35.96404 -87.88365 28283 ft 362 kts 259°
2026-05-08 03:11 35.95781 -87.91374 28640 ft 362 kts 259°
2026-05-08 03:11 35.95156 -87.94382 28993 ft 361 kts 259°
2026-05-08 03:11 35.94541 -87.97331 29472 ft 358 kts 259°
2026-05-08 03:12 35.93923 -88.00283 30015 ft 353 kts 259°
2026-05-08 03:12 35.93318 -88.03194 30498 ft 348 kts 259°
2026-05-08 03:12 35.92720 -88.06069 30940 ft 344 kts 259°
2026-05-08 03:12 35.92129 -88.08909 31365 ft 340 kts 259°
2026-05-08 03:13 35.91543 -88.11726 31750 ft 338 kts 258°
2026-05-08 03:13 35.90961 -88.14528 32031 ft 337 kts 258°
2026-05-08 03:13 35.90378 -88.17316 32089 ft 335 kts 258°
2026-05-08 03:14 35.89223 -88.22834 32094 ft 334 kts 258°
2026-05-08 03:14 35.88653 -88.25621 32262 ft 335 kts 260°
2026-05-08 03:14 35.88273 -88.28441 32625 ft 332 kts 264°
2026-05-08 03:14 35.88078 -88.31267 33036 ft 329 kts 265°
2026-05-08 03:15 35.87890 -88.34070 33423 ft 326 kts 265°
2026-05-08 03:15 35.87766 -88.35911 33693 ft 324 kts 265°
2026-05-08 03:15 35.87577 -88.38669 34099 ft 321 kts 264°
2026-05-08 03:15 35.87388 -88.41402 34442 ft 319 kts 264°
2026-05-08 03:16 35.87202 -88.44119 34731 ft 317 kts 265°
2026-05-08 03:16 35.86959 -88.47705 35083 ft 317 kts 264°
2026-05-08 03:16 35.86775 -88.50408 35333 ft 316 kts 265°
2026-05-08 03:16 35.86590 -88.53106 35574 ft 316 kts 265°
2026-05-08 03:17 35.86405 -88.55800 35816 ft 315 kts 265°
2026-05-08 03:17 35.86217 -88.58490 36018 ft 315 kts 265°
2026-05-08 03:17 35.86092 -88.60272 36069 ft 315 kts 265°
2026-05-08 03:18 35.85714 -88.65646 36090 ft 314 kts 265°
2026-05-08 03:18 35.85272 -88.71881 36090 ft 314 kts 265°
2026-05-08 03:19 35.84949 -88.76374 36090 ft 314 kts 265°
2026-05-08 03:19 35.84559 -88.81702 36088 ft 314 kts 263°
2026-05-08 03:20 35.82978 -88.86744 36082 ft 327 kts 243°
2026-05-08 03:20 35.80058 -88.91119 36084 ft 331 kts 240°
2026-05-08 03:21 35.77102 -88.95477 36088 ft 332 kts 240°
2026-05-08 03:21 35.74145 -88.99837 36051 ft 332 kts 240°
2026-05-08 03:22 35.71181 -89.04195 36062 ft 332 kts 239°
2026-05-08 03:22 35.68231 -89.08520 36078 ft 332 kts 239°
2026-05-08 03:23 35.65262 -89.12879 36088 ft 332 kts 240°
2026-05-08 03:23 35.62286 -89.17236 36088 ft 333 kts 239°
2026-05-08 03:24 35.59310 -89.21591 36082 ft 333 kts 239°
2026-05-08 03:24 35.56357 -89.25919 36088 ft 333 kts 239°
2026-05-08 03:25 35.53377 -89.30269 36088 ft 333 kts 239°
2026-05-08 03:25 35.50397 -89.34618 36092 ft 333 kts 239°
2026-05-08 03:26 35.47415 -89.38977 36062 ft 335 kts 239°
2026-05-08 03:26 35.44433 -89.43324 36068 ft 336 kts 239°
2026-05-08 03:27 35.41417 -89.47696 36075 ft 336 kts 239°
2026-05-08 03:27 35.38401 -89.52067 36082 ft 336 kts 239°
2026-05-08 03:28 35.35378 -89.56436 36089 ft 336 kts 239°
2026-05-08 03:28 35.32360 -89.60809 36093 ft 336 kts 239°
2026-05-08 03:29 35.29344 -89.65181 36088 ft 336 kts 239°
2026-05-08 03:29 35.26320 -89.69544 36088 ft 336 kts 239°
2026-05-08 03:30 35.21779 -89.76093 36071 ft 341 kts 238°
2026-05-08 03:31 35.15620 -89.84948 36081 ft 342 kts 238°
2026-05-08 03:32 35.10998 -89.91577 36095 ft 342 kts 238°
2026-05-08 03:32 35.07936 -89.95958 36094 ft 342 kts 238°
2026-05-08 03:33 35.04854 -90.00373 36099 ft 342 kts 238°
2026-05-08 03:33 35.01769 -90.04779 36101 ft 341 kts 238°
2026-05-08 03:34 34.98688 -90.09175 36032 ft 341 kts 238°
2026-05-08 03:34 34.95595 -90.13586 36073 ft 346 kts 238°
2026-05-08 03:35 34.92460 -90.18054 36074 ft 347 kts 238°
2026-05-08 03:35 34.89324 -90.22520 36081 ft 347 kts 237°
2026-05-08 03:36 34.86187 -90.26976 36088 ft 347 kts 238°
2026-05-08 03:36 34.83070 -90.31399 36091 ft 346 kts 237°
2026-05-08 03:37 34.79925 -90.35842 36092 ft 346 kts 237°
2026-05-08 03:37 34.76781 -90.40284 36100 ft 346 kts 237°
2026-05-08 03:38 34.73643 -90.44726 36102 ft 346 kts 237°
2026-05-08 03:38 34.70493 -90.49174 36059 ft 348 kts 237°
2026-05-08 03:39 34.67346 -90.53605 36063 ft 349 kts 237°
2026-05-08 03:39 34.64170 -90.58077 36067 ft 350 kts 237°
2026-05-08 03:40 34.60982 -90.62560 36073 ft 351 kts 237°
2026-05-08 03:40 34.57783 -90.67042 36075 ft 351 kts 237°
2026-05-08 03:41 34.54821 -90.71651 36080 ft 347 kts 241°
2026-05-08 03:41 34.52044 -90.76440 36083 ft 347 kts 242°
2026-05-08 03:42 34.49243 -90.81257 36100 ft 347 kts 241°
2026-05-08 03:42 34.46416 -90.86012 36061 ft 348 kts 240°
2026-05-08 03:43 34.43562 -90.90768 36066 ft 350 kts 240°
2026-05-08 03:43 34.40705 -90.95504 36073 ft 351 kts 240°
2026-05-08 03:44 34.37823 -91.00289 36075 ft 352 kts 240°
2026-05-08 03:44 34.34942 -91.05082 36080 ft 352 kts 240°
2026-05-08 03:45 34.32052 -91.09866 36085 ft 352 kts 240°
2026-05-08 03:45 34.29163 -91.14658 36084 ft 353 kts 240°
2026-05-08 03:46 34.26293 -91.19417 36092 ft 352 kts 240°
2026-05-08 03:46 34.23398 -91.24196 36094 ft 352 kts 240°
2026-05-08 03:47 34.20504 -91.28977 36049 ft 353 kts 240°
2026-05-08 03:47 34.17599 -91.33768 36060 ft 354 kts 240°
2026-05-08 03:48 34.14673 -91.38575 36067 ft 356 kts 240°
2026-05-08 03:48 34.11758 -91.43361 36075 ft 357 kts 240°
2026-05-08 03:49 34.08816 -91.48189 36080 ft 357 kts 240°
2026-05-08 03:49 34.05874 -91.53020 36077 ft 357 kts 239°
2026-05-08 03:50 34.02925 -91.57838 36087 ft 357 kts 239°
2026-05-08 03:50 33.99975 -91.62646 36093 ft 356 kts 239°
2026-05-08 03:51 33.97058 -91.67421 36094 ft 356 kts 239°
2026-05-08 03:51 33.94114 -91.72213 36055 ft 356 kts 239°
2026-05-08 03:52 33.91167 -91.77007 36058 ft 357 kts 239°
2026-05-08 03:52 33.88211 -91.81824 36064 ft 358 kts 239°
2026-05-08 03:53 33.85242 -91.86650 36079 ft 359 kts 239°
2026-05-08 03:53 33.82259 -91.91478 36070 ft 360 kts 239°
2026-05-08 03:54 33.79280 -91.96303 36071 ft 359 kts 239°
2026-05-08 03:54 33.76321 -92.01094 36073 ft 359 kts 239°
2026-05-08 03:55 33.73337 -92.05910 36078 ft 359 kts 239°
2026-05-08 03:55 33.70353 -92.10719 36083 ft 359 kts 239°
2026-05-08 03:56 33.67357 -92.15526 36085 ft 361 kts 237°
2026-05-08 03:56 33.63544 -92.19625 36061 ft 373 kts 227°
2026-05-08 03:57 33.59457 -92.23462 36066 ft 373 kts 227°
2026-05-08 03:57 33.55396 -92.27279 36073 ft 374 kts 227°
2026-05-08 03:58 33.51304 -92.31130 36077 ft 374 kts 227°
2026-05-08 03:58 33.47210 -92.34976 36089 ft 374 kts 227°
2026-05-08 03:59 33.43111 -92.38812 36095 ft 374 kts 227°
2026-05-08 03:59 33.38523 -92.41971 36098 ft 397 kts 209°
2026-05-08 03:59 33.35809 -92.42699 36098 ft 412 kts 201°
2026-05-08 04:00 33.32976 -92.43212 36098 ft 412 kts 201°
2026-05-08 04:00 33.27306 -92.44229 36099 ft 412 kts 201°
2026-05-08 04:01 33.21643 -92.45254 36098 ft 411 kts 201°
2026-05-08 04:01 33.15986 -92.46294 36094 ft 411 kts 201°
2026-05-08 04:02 33.10327 -92.47328 36066 ft 411 kts 201°
2026-05-08 04:02 33.04714 -92.48349 36078 ft 411 kts 201°
2026-05-08 04:03 32.99061 -92.49384 36086 ft 411 kts 201°
2026-05-08 04:03 32.90583 -92.50932 36090 ft 411 kts 201°
2026-05-08 04:04 32.84935 -92.51959 36060 ft 410 kts 201°
2026-05-08 04:04 32.79327 -92.52971 36072 ft 411 kts 201°
2026-05-08 04:05 32.73675 -92.53987 36082 ft 411 kts 201°
2026-05-08 04:05 32.68025 -92.55009 36087 ft 410 kts 201°
2026-05-08 04:06 32.62380 -92.56028 36092 ft 410 kts 201°
2026-05-08 04:06 32.56774 -92.57044 36050 ft 410 kts 201°
2026-05-08 04:07 32.51126 -92.58066 36064 ft 411 kts 201°
2026-05-08 04:07 32.48299 -92.58577 35944 ft 412 kts 201°
2026-05-08 04:07 32.45472 -92.59090 35572 ft 411 kts 200°
2026-05-08 04:08 32.42643 -92.59604 35214 ft 412 kts 200°
2026-05-08 04:08 32.39806 -92.60117 34860 ft 413 kts 200°
2026-05-08 04:08 32.36960 -92.60632 34509 ft 415 kts 199°
2026-05-08 04:08 32.34140 -92.61144 34159 ft 416 kts 199°
2026-05-08 04:09 32.31270 -92.61661 33748 ft 418 kts 199°
2026-05-08 04:09 32.28388 -92.62177 33360 ft 420 kts 199°
2026-05-08 04:09 32.25491 -92.62694 32973 ft 422 kts 199°
2026-05-08 04:09 32.22584 -92.63214 32593 ft 423 kts 199°
2026-05-08 04:10 32.19667 -92.63735 32220 ft 425 kts 199°
2026-05-08 04:10 32.16744 -92.64256 32039 ft 425 kts 199°
2026-05-08 04:10 32.10879 -92.65297 32075 ft 427 kts 199°
2026-05-08 04:11 32.05049 -92.66342 32078 ft 427 kts 199°
2026-05-08 04:11 31.99342 -92.67883 32071 ft 411 kts 211°
2026-05-08 04:12 31.96834 -92.69394 32075 ft 400 kts 220°
2026-05-08 04:12 31.94638 -92.71346 32071 ft 392 kts 229°
2026-05-08 04:12 31.90958 -92.75995 32071 ft 387 kts 233°
2026-05-08 04:13 31.87363 -92.80660 32068 ft 387 kts 233°
2026-05-08 04:13 31.83743 -92.85356 32067 ft 387 kts 233°
2026-05-08 04:14 31.80122 -92.90046 32061 ft 387 kts 233°
2026-05-08 04:14 31.76500 -92.94728 32047 ft 387 kts 233°
2026-05-08 04:15 31.72873 -92.99410 32047 ft 388 kts 233°
2026-05-08 04:15 31.69261 -93.04059 32055 ft 388 kts 233°
2026-05-08 04:16 31.65629 -93.08745 32058 ft 388 kts 233°
2026-05-08 04:16 31.61991 -93.13433 32056 ft 389 kts 233°
2026-05-08 04:17 31.58343 -93.18113 32059 ft 389 kts 233°
2026-05-08 04:17 31.54697 -93.22796 32065 ft 389 kts 233°
2026-05-08 04:18 31.51073 -93.27447 32067 ft 389 kts 233°
2026-05-08 04:18 31.47422 -93.32127 32033 ft 389 kts 233°
2026-05-08 04:19 31.43767 -93.36803 32044 ft 389 kts 233°
2026-05-08 04:19 31.40106 -93.41478 32054 ft 390 kts 233°
2026-05-08 04:20 31.36466 -93.46129 32060 ft 390 kts 233°
2026-05-08 04:20 31.32795 -93.50807 32052 ft 390 kts 232°
2026-05-08 04:21 31.29118 -93.55475 32056 ft 390 kts 232°
2026-05-08 04:21 31.25443 -93.60145 32051 ft 391 kts 232°
2026-05-08 04:22 31.21790 -93.64793 32055 ft 391 kts 232°
2026-05-08 04:22 31.18111 -93.69467 32021 ft 390 kts 232°
2026-05-08 04:23 31.14432 -93.74124 32034 ft 390 kts 232°
2026-05-08 04:23 31.10751 -93.78777 32036 ft 390 kts 232°
2026-05-08 04:24 31.07074 -93.83427 32042 ft 390 kts 232°
2026-05-08 04:24 31.03417 -93.88045 32042 ft 390 kts 232°
2026-05-08 04:25 30.99725 -93.92694 32043 ft 391 kts 232°
2026-05-08 04:25 30.96027 -93.97336 32045 ft 391 kts 232°
2026-05-08 04:26 30.92333 -94.01977 32050 ft 390 kts 232°
2026-05-08 04:26 30.88669 -94.06583 32021 ft 391 kts 232°
2026-05-08 04:27 30.84970 -94.11221 32031 ft 391 kts 232°
2026-05-08 04:27 30.81269 -94.15861 32035 ft 391 kts 232°
2026-05-08 04:28 30.79417 -94.18174 31856 ft 389 kts 232°
2026-05-08 04:28 30.77589 -94.20455 31003 ft 383 kts 232°
2026-05-08 04:28 30.75783 -94.22711 30062 ft 379 kts 232°
2026-05-08 04:28 30.74017 -94.24916 29025 ft 376 kts 232°
2026-05-08 04:29 30.72248 -94.27127 28062 ft 371 kts 232°
2026-05-08 04:29 30.70501 -94.29311 27137 ft 367 kts 232°
2026-05-08 04:29 30.68776 -94.31468 26246 ft 362 kts 232°
2026-05-08 04:29 30.67072 -94.33600 25380 ft 359 kts 231°
2026-05-08 04:30 30.65382 -94.35712 24552 ft 355 kts 231°
2026-05-08 04:30 30.63708 -94.37802 23764 ft 352 kts 231°
2026-05-08 04:30 30.62047 -94.39875 22892 ft 349 kts 231°
2026-05-08 04:30 30.60422 -94.41899 22095 ft 345 kts 231°
2026-05-08 04:31 30.58794 -94.43924 21319 ft 341 kts 231°
2026-05-08 04:31 30.57185 -94.45925 20561 ft 337 kts 231°
2026-05-08 04:31 30.55598 -94.47900 19819 ft 333 kts 231°
2026-05-08 04:31 30.54026 -94.49853 19080 ft 329 kts 231°
2026-05-08 04:32 30.52516 -94.51825 18364 ft 324 kts 234°
2026-05-08 04:32 30.51109 -94.53837 17740 ft 319 kts 236°
2026-05-08 04:32 30.49745 -94.55874 17233 ft 320 kts 236°
2026-05-08 04:32 30.48411 -94.57891 16738 ft 319 kts 236°
2026-05-08 04:33 30.47061 -94.59925 16234 ft 318 kts 236°
2026-05-08 04:33 30.45704 -94.61952 15729 ft 318 kts 235°
2026-05-08 04:33 30.44337 -94.63971 15233 ft 319 kts 235°
2026-05-08 04:33 30.42963 -94.65989 14725 ft 319 kts 235°
2026-05-08 04:34 30.41582 -94.68011 14221 ft 321 kts 235°
2026-05-08 04:34 30.40190 -94.70043 13676 ft 323 kts 234°
2026-05-08 04:34 30.38754 -94.72043 13155 ft 323 kts 232°
2026-05-08 04:34 30.37279 -94.74003 12638 ft 323 kts 231°
2026-05-08 04:35 30.35811 -94.75916 12153 ft 322 kts 231°
2026-05-08 04:35 30.34322 -94.77851 11639 ft 321 kts 230°
2026-05-08 04:35 30.32846 -94.79772 11349 ft 314 kts 230°
2026-05-08 04:35 30.31425 -94.81625 11232 ft 302 kts 230°
2026-05-08 04:36 30.30060 -94.83411 11094 ft 291 kts 230°
2026-05-08 04:36 30.28739 -94.85149 10887 ft 284 kts 230°
2026-05-08 04:36 30.27455 -94.86878 10653 ft 282 kts 231°
2026-05-08 04:36 30.26219 -94.88592 10506 ft 280 kts 231°
2026-05-08 04:37 30.24975 -94.90337 10508 ft 282 kts 231°
2026-05-08 04:37 30.23727 -94.92085 10508 ft 282 kts 231°
2026-05-08 04:37 30.22476 -94.93833 10507 ft 282 kts 231°
2026-05-08 04:37 30.21226 -94.95578 10507 ft 282 kts 231°
2026-05-08 04:38 30.19972 -94.97319 10507 ft 282 kts 231°
2026-05-08 04:38 30.18716 -94.99056 10423 ft 281 kts 231°
2026-05-08 04:38 30.17460 -95.00789 10343 ft 281 kts 231°
2026-05-08 04:38 30.16206 -95.02522 10262 ft 281 kts 231°
2026-05-08 04:39 30.14968 -95.04229 10180 ft 281 kts 231°
2026-05-08 04:39 30.13715 -95.05958 10096 ft 279 kts 231°
2026-05-08 04:39 30.12487 -95.07652 9887 ft 272 kts 230°
2026-05-08 04:39 30.11246 -95.09285 9570 ft 269 kts 229°
2026-05-08 04:40 30.09989 -95.10881 9206 ft 268 kts 227°
2026-05-08 04:40 30.08726 -95.12463 8842 ft 268 kts 227°
2026-05-08 04:40 30.07467 -95.14042 8467 ft 267 kts 227°
2026-05-08 04:40 30.06214 -95.15620 8100 ft 266 kts 227°
2026-05-08 04:41 30.04969 -95.17194 7836 ft 265 kts 226°
2026-05-08 04:41 30.03746 -95.18749 7637 ft 265 kts 226°
2026-05-08 04:41 30.02510 -95.20328 7428 ft 265 kts 226°
2026-05-08 04:41 30.01275 -95.21906 7219 ft 265 kts 226°
2026-05-08 04:42 30.00034 -95.23486 7001 ft 267 kts 226°
2026-05-08 04:42 29.98787 -95.25073 6789 ft 267 kts 226°
2026-05-08 04:42 29.97540 -95.26660 6575 ft 267 kts 226°
2026-05-08 04:42 29.96291 -95.28246 6362 ft 267 kts 225°
2026-05-08 04:43 29.95046 -95.29830 6142 ft 266 kts 225°
2026-05-08 04:43 29.93824 -95.31387 6015 ft 265 kts 225°
2026-05-08 04:43 29.92589 -95.32962 6005 ft 265 kts 225°
2026-05-08 04:43 29.91353 -95.34536 6008 ft 265 kts 225°
2026-05-08 04:44 29.90178 -95.36169 6005 ft 266 kts 235°
2026-05-08 04:44 29.89424 -95.38121 6011 ft 269 kts 253°
2026-05-08 04:44 29.89209 -95.40271 6009 ft 271 kts 268°
2026-05-08 04:44 29.89229 -95.42388 5969 ft 257 kts 268°
2026-05-08 04:45 29.89233 -95.44388 5913 ft 243 kts 267°
2026-05-08 04:45 29.89219 -95.46279 5859 ft 230 kts 266°
2026-05-08 04:45 29.89194 -95.48076 5808 ft 222 kts 266°
2026-05-08 04:45 29.89160 -95.49860 5765 ft 227 kts 266°
2026-05-08 04:46 29.89124 -95.51679 5848 ft 226 kts 266°
2026-05-08 04:46 29.89087 -95.53505 6072 ft 229 kts 266°
2026-05-08 04:46 29.89049 -95.55345 6320 ft 230 kts 265°
2026-05-08 04:46 29.89009 -95.57190 6550 ft 232 kts 265°
2026-05-08 04:47 29.88970 -95.59051 6518 ft 229 kts 266°
2026-05-08 04:47 29.88932 -95.60896 6514 ft 229 kts 266°
2026-05-08 04:47 29.88894 -95.62740 6506 ft 229 kts 266°
2026-05-08 04:47 29.88854 -95.64584 6480 ft 229 kts 266°
2026-05-08 04:48 29.88815 -95.66402 6480 ft 230 kts 266°
2026-05-08 04:48 29.88775 -95.68245 6480 ft 230 kts 266°
2026-05-08 04:48 29.88734 -95.70086 6485 ft 231 kts 265°
2026-05-08 04:48 29.88692 -95.71927 6502 ft 230 kts 266°
2026-05-08 04:49 29.88653 -95.73752 6516 ft 228 kts 266°
2026-05-08 04:49 29.88764 -95.75570 6511 ft 231 kts 283°
2026-05-08 04:49 29.89540 -95.77189 6305 ft 233 kts 314°
2026-05-08 04:49 29.90903 -95.78151 6306 ft 229 kts 345°
2026-05-08 04:50 29.92434 -95.78256 6340 ft 224 kts 11°
2026-05-08 04:50 29.93945 -95.77861 6330 ft 222 kts 15°
2026-05-08 04:50 29.95453 -95.77462 6324 ft 222 kts 14°
2026-05-08 04:50 29.96957 -95.77047 6316 ft 222 kts 19°
2026-05-08 04:51 29.98254 -95.76141 6293 ft 218 kts 47°
2026-05-08 04:51 29.99056 -95.74698 6298 ft 214 kts 73°
2026-05-08 04:51 29.99257 -95.73017 6270 ft 213 kts 92°
2026-05-08 04:51 29.99256 -95.71301 5911 ft 213 kts 92°
2026-05-08 04:52 29.99261 -95.69632 5635 ft 209 kts 92°
2026-05-08 04:52 29.99266 -95.67969 5357 ft 205 kts 92°
2026-05-08 04:52 29.99272 -95.66337 5097 ft 201 kts 92°
2026-05-08 04:52 29.99277 -95.64751 4848 ft 194 kts 93°
2026-05-08 04:53 29.99283 -95.63226 4634 ft 186 kts 93°
2026-05-08 04:53 29.99287 -95.61760 4408 ft 180 kts 93°
2026-05-08 04:53 29.99292 -95.60343 4177 ft 174 kts 94°
2026-05-08 04:53 29.99296 -95.58971 3954 ft 169 kts 94°
2026-05-08 04:54 29.99299 -95.57655 3743 ft 164 kts 94°
2026-05-08 04:54 29.99304 -95.56385 3540 ft 152 kts 94°
2026-05-08 04:54 29.99307 -95.55230 3351 ft 138 kts 94°
2026-05-08 04:54 29.99310 -95.54137 3180 ft 134 kts 95°
2026-05-08 04:55 29.99312 -95.53064 3007 ft 133 kts 93°
2026-05-08 04:55 29.99314 -95.52004 2833 ft 132 kts 93°
2026-05-08 04:55 29.99316 -95.50946 2662 ft 132 kts 93°
2026-05-08 04:55 29.99318 -95.49896 2494 ft 130 kts 92°
2026-05-08 04:56 29.99321 -95.48862 2320 ft 129 kts 91°
2026-05-08 04:56 29.99322 -95.47848 2154 ft 128 kts 91°
2026-05-08 04:56 29.99324 -95.46823 1987 ft 128 kts 90°
2026-05-08 04:56 29.99326 -95.45800 1803 ft 127 kts 91°
2026-05-08 04:57 29.99328 -95.44782 1630 ft 127 kts 90°
2026-05-08 04:57 29.99330 -95.43763 1459 ft 128 kts 89°
2026-05-08 04:57 29.99332 -95.42735 1290 ft 129 kts 88°
2026-05-08 04:57 29.99333 -95.41697 1115 ft 130 kts 88°
2026-05-08 04:58 29.99335 -95.40660 957 ft 130 kts 87°
2026-05-08 04:58 29.99336 -95.39613 802 ft 131 kts 85°
2026-05-08 04:58 29.99338 -95.38585 653 ft 129 kts 88°
2026-05-08 04:58 29.99339 -95.37543 478 ft 128 kts 89°
2026-05-08 04:59 29.99340 -95.36517 322 ft 128 kts 89°
2026-05-08 04:59 29.99341 -95.35501 155 ft 126 kts 89°
2026-05-08 04:59 29.99340 -95.34558 109 ft 109 kts 89°
2026-05-08 04:59 29.99342 -95.33739 107 ft 95 kts 90°
2026-05-08 05:00 29.99345 -95.33064 109 ft 56 kts 89°
2026-05-08 05:00 29.99344 -95.32709 106 ft 30 kts 91°
2026-05-08 05:00 29.99327 -95.32563 104 ft 14 kts 134°
2026-05-08 05:00 29.99235 -95.32541 107 ft 14 kts 176°
2026-05-08 05:01 29.99141 -95.32544 107 ft 11 kts 184°
2026-05-08 05:01 29.99093 -95.32604 107 ft 11 kts 260°
2026-05-08 05:01 29.99090 -95.32696 107 ft 12 kts 271°
2026-05-08 05:01 29.99091 -95.32803 107 ft 16 kts 270°
2026-05-08 05:02 29.99091 -95.32935 107 ft 17 kts 269°
2026-05-08 05:02 29.99091 -95.33071 107 ft 17 kts 270°
2026-05-08 05:02 29.99092 -95.33212 107 ft 18 kts 270°
2026-05-08 05:02 29.99091 -95.33353 107 ft 18 kts 269°
2026-05-08 05:03 29.99090 -95.33499 107 ft 18 kts 270°
2026-05-08 05:03 29.99090 -95.33650 107 ft 19 kts 270°
2026-05-08 05:03 29.99089 -95.33802 107 ft 19 kts 269°
2026-05-08 05:03 29.99090 -95.33943 107 ft 9 kts 271°
2026-05-08 05:04 29.99044 -95.33981 107 ft 9 kts 192°
2026-05-08 05:04 29.98986 -95.34010 107 ft 9 kts 226°
2026-05-08 05:04 29.98958 -95.34068 107 ft 7 kts 242°
2026-05-08 05:04 29.98942 -95.34101 106 ft 2 kts 240°
2026-05-08 05:05 29.98940 -95.34105 106 ft 0 kts 239°